ASA1412 KLAX-KSFO

Flight info

Callsign ASA1412
Flight time 0h 49m
Altitude 38000
Route SUMMR2 STOKD SERFR WWAVS2
Aircraft B739/M-SDE2E3FGHIRWXY/LB1

Departure

Time 2026-04-20 23:36
Airport Los Angeles International Airport (KLAX)

Arrival

Time 2026-04-21 00:25
Airport San Francisco International Airport (KSFO)
Time Latitude Longitude Altitude Speed Heading
2026-04-20 23:07 33.94183 -118.40282 128 ft 0 kts 83°
2026-04-20 23:20 33.94181 -118.40298 128 ft 2 kts 83°
2026-04-20 23:20 33.94179 -118.40316 128 ft 2 kts 92°
2026-04-20 23:20 33.94185 -118.40332 128 ft 2 kts 136°
2026-04-20 23:20 33.94197 -118.40340 129 ft 0 kts 169°
2026-04-20 23:21 33.94203 -118.40340 129 ft 1 kts 174°
2026-04-20 23:21 33.94204 -118.40340 129 ft 0 kts 174°
2026-04-20 23:26 33.94202 -118.40340 128 ft 2 kts 174°
2026-04-20 23:27 33.94166 -118.40336 128 ft 8 kts 174°
2026-04-20 23:27 33.94093 -118.40324 128 ft 12 kts 173°
2026-04-20 23:27 33.94023 -118.40314 128 ft 5 kts 173°
2026-04-20 23:27 33.93991 -118.40309 128 ft 4 kts 174°
2026-04-20 23:28 33.93944 -118.40309 127 ft 9 kts 210°
2026-04-20 23:28 33.93921 -118.40400 128 ft 15 kts 263°
2026-04-20 23:28 33.93903 -118.40565 131 ft 22 kts 263°
2026-04-20 23:28 33.93883 -118.40762 133 ft 24 kts 263°
2026-04-20 23:29 33.93862 -118.40968 133 ft 25 kts 263°
2026-04-20 23:29 33.93838 -118.41187 132 ft 25 kts 262°
2026-04-20 23:29 33.93972 -118.41279 127 ft 27 kts 353°
2026-04-20 23:29 33.94162 -118.41308 127 ft 26 kts 353°
2026-04-20 23:30 33.94348 -118.41335 125 ft 26 kts 353°
2026-04-20 23:30 33.94528 -118.41361 126 ft 23 kts 354°
2026-04-20 23:30 33.94612 -118.41373 127 ft 0 kts 353°
2026-04-20 23:31 33.94630 -118.41376 127 ft 5 kts 353°
2026-04-20 23:31 33.94679 -118.41383 127 ft 9 kts 353°
2026-04-20 23:31 33.94756 -118.41392 128 ft 12 kts
2026-04-20 23:31 33.94794 -118.41287 129 ft 17 kts 83°
2026-04-20 23:32 33.94812 -118.41106 130 ft 26 kts 83°
2026-04-20 23:32 33.94837 -118.40868 129 ft 28 kts 83°
2026-04-20 23:32 33.94861 -118.40636 127 ft 27 kts 83°
2026-04-20 23:32 33.94884 -118.40407 125 ft 27 kts 83°
2026-04-20 23:33 33.94906 -118.40194 123 ft 23 kts 83°
2026-04-20 23:33 33.94915 -118.40111 122 ft 0 kts 83°
2026-04-20 23:33 33.94916 -118.40101 122 ft 4 kts 83°
2026-04-20 23:34 33.94924 -118.40018 121 ft 14 kts 83°
2026-04-20 23:34 33.95000 -118.39916 117 ft 21 kts 355°
2026-04-20 23:34 33.95041 -118.39979 118 ft 0 kts 263°
2026-04-20 23:34 33.95040 -118.39980 118 ft 1 kts 263°
2026-04-20 23:35 33.95032 -118.40057 119 ft 23 kts 263°
2026-04-20 23:35 33.94878 -118.41567 128 ft 151 kts 262°
2026-04-20 23:35 33.94747 -118.42869 641 ft 159 kts 263°
2026-04-20 23:36 33.94614 -118.44163 1437 ft 154 kts 262°
2026-04-20 23:36 33.94474 -118.45479 1973 ft 167 kts 262°
2026-04-20 23:36 33.94350 -118.46948 2533 ft 182 kts 266°
2026-04-20 23:36 33.94296 -118.48515 3122 ft 194 kts 268°
2026-04-20 23:37 33.94265 -118.50202 3708 ft 208 kts 268°
2026-04-20 23:37 33.94171 -118.51997 4256 ft 224 kts 264°
2026-04-20 23:37 33.94005 -118.53956 4798 ft 244 kts 263°
2026-04-20 23:37 33.93827 -118.56023 5574 ft 251 kts 263°
2026-04-20 23:38 33.93655 -118.58142 6417 ft 257 kts 263°
2026-04-20 23:38 33.93483 -118.60335 7218 ft 265 kts 263°
2026-04-20 23:38 33.93304 -118.62604 7859 ft 280 kts 263°
2026-04-20 23:38 33.93121 -118.64936 8719 ft 284 kts 263°
2026-04-20 23:39 33.92938 -118.67297 9600 ft 286 kts 262°
2026-04-20 23:39 33.92753 -118.69692 10388 ft 293 kts 261°
2026-04-20 23:39 33.92556 -118.72188 10942 ft 308 kts 261°
2026-04-20 23:39 33.92348 -118.74829 11454 ft 323 kts 261°
2026-04-20 23:40 33.92131 -118.77576 11880 ft 339 kts 262°
2026-04-20 23:40 33.91909 -118.80409 11968 ft 342 kts 262°
2026-04-20 23:40 33.91716 -118.83285 11977 ft 342 kts 264°
2026-04-20 23:40 33.91687 -118.86169 12376 ft 353 kts 268°
2026-04-20 23:41 33.91775 -118.89053 13481 ft 346 kts 269°
2026-04-20 23:41 33.91894 -118.91958 14272 ft 351 kts 269°
2026-04-20 23:41 33.92012 -118.94892 14997 ft 354 kts 269°
2026-04-20 23:41 33.92149 -118.97895 15737 ft 358 kts 271°
2026-04-20 23:42 33.92550 -119.00896 16484 ft 365 kts 279°
2026-04-20 23:42 33.93393 -119.03729 17177 ft 373 kts 290°
2026-04-20 23:42 33.94643 -119.06548 17869 ft 379 kts 295°
2026-04-20 23:42 33.96025 -119.09280 18521 ft 384 kts 297°
2026-04-20 23:43 33.97467 -119.12007 19181 ft 388 kts 297°
2026-04-20 23:43 33.98948 -119.14765 19783 ft 394 kts 298°
2026-04-20 23:43 34.00636 -119.17395 20363 ft 403 kts 306°
2026-04-20 23:43 34.02630 -119.19826 20949 ft 412 kts 313°
2026-04-20 23:44 34.04831 -119.22044 21550 ft 418 kts 317°
2026-04-20 23:44 34.07188 -119.24165 22137 ft 423 kts 319°
2026-04-20 23:44 34.09588 -119.26216 22685 ft 427 kts 320°
2026-04-20 23:44 34.12040 -119.28278 23199 ft 431 kts 320°
2026-04-20 23:45 34.14509 -119.30353 23815 ft 432 kts 320°
2026-04-20 23:45 34.16973 -119.32432 24403 ft 433 kts 320°
2026-04-20 23:45 34.19432 -119.34519 24897 ft 436 kts 320°
2026-04-20 23:45 34.21940 -119.36659 25414 ft 438 kts 320°
2026-04-20 23:46 34.24410 -119.38776 25933 ft 439 kts 320°
2026-04-20 23:46 34.26890 -119.40910 26376 ft 442 kts 320°
2026-04-20 23:46 34.29394 -119.43070 26897 ft 443 kts 320°
2026-04-20 23:46 34.31929 -119.45259 27326 ft 446 kts 320°
2026-04-20 23:47 34.34453 -119.47443 27771 ft 449 kts 320°
2026-04-20 23:47 34.36970 -119.49624 28201 ft 451 kts 320°
2026-04-20 23:47 34.39506 -119.51873 28638 ft 451 kts 317°
2026-04-20 23:47 34.41916 -119.54295 29084 ft 450 kts 313°
2026-04-20 23:48 34.44216 -119.56887 29459 ft 451 kts 311°
2026-04-20 23:48 34.46432 -119.59547 29861 ft 453 kts 310°
2026-04-20 23:48 34.48649 -119.62284 30333 ft 453 kts 309°
2026-04-20 23:48 34.50843 -119.65018 30970 ft 449 kts 308°
2026-04-20 23:49 34.53024 -119.67738 31585 ft 445 kts 308°
2026-04-20 23:49 34.55163 -119.70403 32028 ft 445 kts 308°
2026-04-20 23:49 34.57333 -119.73103 32476 ft 445 kts 307°
2026-04-20 23:49 34.59470 -119.75761 32877 ft 445 kts 307°
2026-04-20 23:50 34.61653 -119.78470 33297 ft 445 kts 308°
2026-04-20 23:50 34.63799 -119.81130 33778 ft 444 kts 307°
2026-04-20 23:50 34.65957 -119.83802 34325 ft 441 kts 307°
2026-04-20 23:50 34.68109 -119.86466 34848 ft 439 kts 307°
2026-04-20 23:51 34.70291 -119.89172 35221 ft 440 kts 307°
2026-04-20 23:51 34.72473 -119.91880 35663 ft 439 kts 307°
2026-04-20 23:51 34.74620 -119.94546 36204 ft 437 kts 307°
2026-04-20 23:51 34.76746 -119.97182 36745 ft 434 kts 307°
2026-04-20 23:52 34.78914 -119.99880 36955 ft 437 kts 307°
2026-04-20 23:52 34.81071 -120.02571 37336 ft 437 kts 307°
2026-04-20 23:52 34.83212 -120.05244 37719 ft 436 kts 307°
2026-04-20 23:52 34.85349 -120.07908 38013 ft 437 kts 307°
2026-04-20 23:53 34.87491 -120.10584 38006 ft 440 kts 307°
2026-04-20 23:53 34.91753 -120.15901 38005 ft 435 kts 307°
2026-04-20 23:54 34.96004 -120.21214 37995 ft 435 kts 307°
2026-04-20 23:54 35.00200 -120.26472 37993 ft 434 kts 307°
2026-04-20 23:55 35.04435 -120.31787 37992 ft 436 kts 307°
2026-04-20 23:55 35.08646 -120.37080 37984 ft 435 kts 308°
2026-04-20 23:56 35.12987 -120.42200 37984 ft 436 kts 311°
2026-04-20 23:56 35.17514 -120.47199 37984 ft 440 kts 311°
2026-04-20 23:57 35.22047 -120.52193 37984 ft 440 kts 311°
2026-04-20 23:57 35.26570 -120.57222 37990 ft 440 kts 311°
2026-04-20 23:58 35.31097 -120.62293 37986 ft 440 kts 311°
2026-04-20 23:58 35.35573 -120.67326 37992 ft 438 kts 310°
2026-04-20 23:59 35.40062 -120.72392 37990 ft 438 kts 310°
2026-04-20 23:59 35.44534 -120.77450 37987 ft 439 kts 310°
2026-04-21 00:00 35.49032 -120.82477 37981 ft 440 kts 313°
2026-04-21 00:00 35.53847 -120.87148 37976 ft 443 kts 317°
2026-04-21 00:01 35.58825 -120.91672 37971 ft 444 kts 317°
2026-04-21 00:01 35.63761 -120.96166 37977 ft 444 kts 317°
2026-04-21 00:02 35.68714 -121.00724 37970 ft 442 kts 317°
2026-04-21 00:02 35.73624 -121.05278 37970 ft 443 kts 316°
2026-04-21 00:03 35.78538 -121.09856 37970 ft 444 kts 316°
2026-04-21 00:03 35.80989 -121.12144 37840 ft 438 kts 316°
2026-04-21 00:03 35.83379 -121.14372 37521 ft 431 kts 316°
2026-04-21 00:03 35.85768 -121.16605 37060 ft 432 kts 316°
2026-04-21 00:04 35.88154 -121.18843 36497 ft 432 kts 316°
2026-04-21 00:04 35.90526 -121.21073 36026 ft 433 kts 316°
2026-04-21 00:04 35.92928 -121.23332 35572 ft 435 kts 316°
2026-04-21 00:04 35.95338 -121.25600 35055 ft 434 kts 316°
2026-04-21 00:05 35.97734 -121.27849 34553 ft 430 kts 316°
2026-04-21 00:05 36.00095 -121.30066 34055 ft 426 kts 316°
2026-04-21 00:05 36.02456 -121.32286 33579 ft 423 kts 316°
2026-04-21 00:05 36.04767 -121.34461 33099 ft 420 kts 316°
2026-04-21 00:06 36.07109 -121.36646 32596 ft 419 kts 317°
2026-04-21 00:06 36.09482 -121.38676 32113 ft 419 kts 319°
2026-04-21 00:06 36.11959 -121.40640 31610 ft 417 kts 321°
2026-04-21 00:06 36.14421 -121.42525 31120 ft 415 kts 321°
2026-04-21 00:07 36.16890 -121.44401 30630 ft 413 kts 321°
2026-04-21 00:07 36.19333 -121.46262 30145 ft 410 kts 321°
2026-04-21 00:07 36.21766 -121.48128 29654 ft 407 kts 321°
2026-04-21 00:07 36.24162 -121.49979 29183 ft 404 kts 321°
2026-04-21 00:08 36.26553 -121.51834 28941 ft 398 kts 320°
2026-04-21 00:08 36.28879 -121.53648 28564 ft 397 kts 320°
2026-04-21 00:08 36.31211 -121.55487 27767 ft 404 kts 320°
2026-04-21 00:08 36.33589 -121.57372 26991 ft 410 kts 320°
2026-04-21 00:09 36.36037 -121.59312 26111 ft 418 kts 320°
2026-04-21 00:09 36.38490 -121.61249 25195 ft 426 kts 321°
2026-04-21 00:09 36.41042 -121.63258 24321 ft 432 kts 321°
2026-04-21 00:09 36.43573 -121.65241 23770 ft 429 kts 320°
2026-04-21 00:10 36.46110 -121.67220 23296 ft 426 kts 320°
2026-04-21 00:10 36.48589 -121.69153 22819 ft 424 kts 321°
2026-04-21 00:10 36.51094 -121.71111 22314 ft 422 kts 320°
2026-04-21 00:10 36.53557 -121.73045 21808 ft 420 kts 320°
2026-04-21 00:11 36.56034 -121.74998 21296 ft 418 kts 320°
2026-04-21 00:11 36.58475 -121.76929 20791 ft 415 kts 320°
2026-04-21 00:11 36.60894 -121.78847 20287 ft 412 kts 320°
2026-04-21 00:11 36.63288 -121.80744 19792 ft 409 kts 320°
2026-04-21 00:12 36.65677 -121.82639 19292 ft 406 kts 320°
2026-04-21 00:12 36.68057 -121.84529 18802 ft 404 kts 320°
2026-04-21 00:12 36.70399 -121.86391 18306 ft 401 kts 320°
2026-04-21 00:12 36.72787 -121.88196 17814 ft 400 kts 324°
2026-04-21 00:13 36.75343 -121.89726 17343 ft 402 kts 333°
2026-04-21 00:13 36.77992 -121.90771 16883 ft 403 kts 340°
2026-04-21 00:13 36.80740 -121.91572 16389 ft 402 kts 344°
2026-04-21 00:13 36.83474 -121.92258 15916 ft 400 kts 345°
2026-04-21 00:14 36.86194 -121.92922 15435 ft 398 kts 345°
2026-04-21 00:14 36.88911 -121.93607 14949 ft 396 kts 345°
2026-04-21 00:14 36.91577 -121.94307 14447 ft 393 kts 345°
2026-04-21 00:14 36.94241 -121.95027 14021 ft 391 kts 345°
2026-04-21 00:15 36.96894 -121.95814 13505 ft 388 kts 342°
2026-04-21 00:15 36.99456 -121.96745 13031 ft 385 kts 340°
2026-04-21 00:15 37.02006 -121.97777 12554 ft 382 kts 339°
2026-04-21 00:15 37.04515 -121.98822 12082 ft 379 kts 339°
2026-04-21 00:16 37.07005 -121.99847 11628 ft 371 kts 339°
2026-04-21 00:16 37.09427 -122.00826 11196 ft 362 kts 340°
2026-04-21 00:16 37.11846 -122.01786 10733 ft 354 kts 340°
2026-04-21 00:16 37.14195 -122.02710 10298 ft 346 kts 340°
2026-04-21 00:17 37.16481 -122.03605 9885 ft 338 kts 340°
2026-04-21 00:17 37.18698 -122.04472 9568 ft 328 kts 340°
2026-04-21 00:17 37.20868 -122.05321 9176 ft 323 kts 340°
2026-04-21 00:17 37.22984 -122.06152 8789 ft 319 kts 340°
2026-04-21 00:18 37.25106 -122.06986 8398 ft 314 kts 340°
2026-04-21 00:18 37.27177 -122.07799 8037 ft 307 kts 340°
2026-04-21 00:18 37.29211 -122.08598 7738 ft 303 kts 340°
2026-04-21 00:18 37.31229 -122.09394 7288 ft 301 kts 340°
2026-04-21 00:19 37.33229 -122.10183 6780 ft 301 kts 340°
2026-04-21 00:19 37.35220 -122.10967 6380 ft 297 kts 340°
2026-04-21 00:19 37.37212 -122.11752 6028 ft 294 kts 341°
2026-04-21 00:19 37.39158 -122.12482 5755 ft 288 kts 342°
2026-04-21 00:20 37.41105 -122.13149 5318 ft 284 kts 343°
2026-04-21 00:20 37.42987 -122.13775 4952 ft 275 kts 343°
2026-04-21 00:20 37.44808 -122.14384 4624 ft 265 kts 343°
2026-04-21 00:20 37.46557 -122.14979 4306 ft 256 kts 342°
2026-04-21 00:21 37.48270 -122.15568 3997 ft 251 kts 342°
2026-04-21 00:21 37.49916 -122.16135 3693 ft 245 kts 342°
2026-04-21 00:21 37.51550 -122.16696 3396 ft 238 kts 342°
2026-04-21 00:21 37.53063 -122.17403 3114 ft 229 kts 326°
2026-04-21 00:22 37.54207 -122.18729 2864 ft 217 kts 296°
2026-04-21 00:22 37.54754 -122.20419 2630 ft 203 kts 283°
2026-04-21 00:22 37.55329 -122.22046 2367 ft 199 kts 290°
2026-04-21 00:22 37.55968 -122.23556 2112 ft 193 kts 292°
2026-04-21 00:23 37.56603 -122.25028 1863 ft 188 kts 292°
2026-04-21 00:23 37.57212 -122.26475 1621 ft 185 kts 292°
2026-04-21 00:23 37.57820 -122.27924 1378 ft 187 kts 293°
2026-04-21 00:23 37.58430 -122.29371 1134 ft 181 kts 294°
2026-04-21 00:24 37.59002 -122.30706 925 ft 167 kts 294°
2026-04-21 00:24 37.59526 -122.31941 709 ft 155 kts 293°
2026-04-21 00:24 37.60030 -122.33147 510 ft 154 kts 294°
2026-04-21 00:24 37.60529 -122.34332 316 ft 154 kts 295°
2026-04-21 00:25 37.61031 -122.35520 122 ft 154 kts 295°
2026-04-21 00:25 37.61536 -122.36701 13 ft 145 kts 296°
2026-04-21 00:25 37.61900 -122.37575 23 ft 77 kts 299°
2026-04-21 00:25 37.62069 -122.37978 31 ft 40 kts 298°
2026-04-21 00:26 37.62170 -122.38276 31 ft 29 kts 248°
2026-04-21 00:26 37.62044 -122.38214 31 ft 25 kts 118°
2026-04-21 00:26 37.61964 -122.38029 31 ft 23 kts 120°
2026-04-21 00:26 37.61824 -122.37959 30 ft 21 kts 171°
2026-04-21 00:27 37.61678 -122.37954 30 ft 20 kts 202°
2026-04-21 00:27 37.61558 -122.38033 31 ft 18 kts 207°
2026-04-21 00:27 37.61447 -122.38106 31 ft 17 kts 207°
2026-04-21 00:27 37.61344 -122.38177 31 ft 15 kts 223°
2026-04-21 00:28 37.61295 -122.38296 31 ft 13 kts 236°
2026-04-21 00:28 37.61304 -122.38355 31 ft 1 kts 300°
2026-04-21 00:28 37.61304 -122.38357 31 ft 0 kts 300°
2026-04-21 00:28 37.61305 -122.38358 31 ft 0 kts 300°